Regional Weather Roundup
Issued by NWS

Home | Current Version | Previous Version | Graphics & Text | Print | Product List | Glossary On
Versions: 1 2 3 4 5 6 7 8 9 10 11 12 13 14 15 16 17 18 19 20 21 22 23 24 25 26 27 28 29 30 31 32 33 34 35 36 37 38 39 40 41 42 43 44 45 46 47 48 49 50
000
ASUS43 KMKX 170900
RWRWI

WISCONSIN REGIONAL WEATHER ROUNDUP
NATIONAL WEATHER SERVICE MILWAUKEE/SULLIVAN WI
300 AM CST TUE JAN 17 2017

NOTE: "FAIR" INDICATES FEW OR NO CLOUDS BELOW 12,000 FEET WITH NO
SIGNIFICANT WEATHER AND/OR OBSTRUCTIONS TO VISIBILITY.

WIZ001-002-006>008-014>016-023>028-171000-
NORTHWEST WISCONSIN

CITY           SKY/WX    TMP DP  RH WIND       PRES   REMARKS
SUPERIOR ARPT  MOCLDY    19  17  90 NW5       30.01S WCI  12
ASHLAND        CLOUDY    23  19  85 CALM      30.00S
HAYWARD        CLOUDY    30  23  75 NE3       29.95F
SIREN          CLOUDY    28  22  76 N3        29.97F
CUMBERLAND     MIX PCPN  32  32 100 N6        29.93F WCI  26
RICE LAKE      LGT SNOW  32  32  99 N10       29.94S WCI  24
CHETEK         LGT SNOW  32  32 100 CALM      29.93S
LADYSMITH      LGT RAIN  32  30  90 NE8       29.94S WCI  25
EAU CLAIRE     LGT SNOW  34  32  93 N8        29.90S FOG     WCI  27
MENOMONIE      LGT SNOW  33  33 100 N5        29.91S WCI  28
NEW RICHMOND   MIX PCPN  32  32  99 NE6       29.93F WCI  27
OSCEOLA        LGT SNOW  32  32 100 N7        29.97F WCI  26
$$

WIZ003>005-009-010-017-018-171000-
NORTH CENTRAL WISCONSIN

CITY           SKY/WX    TMP DP  RH WIND       PRES   REMARKS
MANITOWISH WTR CLOUDY    25  24  96 CALM      29.94S
ARBOR VITAE    FLURRIES  29  26  86 CALM      29.94S
WOODRUFF       FLURRIES  29  26  86 CALM      29.94S
RHINELANDER    LGT SNOW  29  27  92 NE7       29.92F FOG     WCI  22
EAGLE RIVER    LGT SNOW  26  22  85 CALM      29.94S
LAND O LAKES   CLOUDY    24  22  91 CALM      29.96F
PHILLIPS       LGT SNOW  29  27  95 NE3       29.93R
TOMAHAWK       LGT SNOW  30  28  94 NE3       29.92F
MEDFORD        MIX PCPN  32  31  96 NE7       29.87F WCI  26
MERRILL        LGT SNOW  32  32 100 NE7         N/A  WCI  26
$$

WIZ029-030-035-036-043>047-171000-
CENTRAL WISCONSIN

CITY           SKY/WX    TMP DP  RH WIND       PRES   REMARKS
WAUSAU         CLOUDY    33  32  96 NE3       29.87F FOG
MOSINEE        CLOUDY    32  32 100 NE6       29.88S WCI  26
MARSHFIELD     MIX PCPN  33  31  92 NE10      29.85S FOG     WCI  25
STEVENS POINT  MIX PCPN  31  31 100 NE6       29.87S WCI  25
WAUPACA        DRIZZLE   34  33  93 CALM      29.88F
WAUTOMA        MIX PCPN  33  32  96 NE8       29.85F WCI  26
WISC RAPIDS    NOT AVBL
CAMP DOUGLAS   CLOUDY    32  32 100 CALM      29.85S FOG
$$

WIZ011>013-019>022-031-037>040-048>050-171000-
NORTHEAST WISCONSIN

CITY           SKY/WX    TMP DP  RH WIND       PRES   REMARKS
ANTIGO         MIX PCPN  31  31  99 NE12      29.90F WCI  22
SHAWANO        LGT RAIN  34  32  93 NE6       29.91F WCI  29
OCONTO         CLOUDY    32  31  95 NE7       29.92F WCI  26
STURGEON BAY   LGT RAIN  34  33  96 NE10      29.91F FOG     WCI  26
GREEN BAY      CLOUDY    35  34  96 NE15      29.88F FOG     WCI  25
MANITOWOC      NOT AVBL
APPLETON       CLOUDY    32  32 100 NE8       29.85F FOG     WCI  25
CLINTONVILLE   MIX PCPN  32  32 100 NE7       29.89F WCI  26
OSHKOSH        CLOUDY    34  32  92 NE14      29.84F FOG     WCI  25
$$

WIZ032>034-041-042-053>061-171000-
SOUTHWEST WISCONSIN

CITY           SKY/WX    TMP DP  RH WIND       PRES   REMARKS
LA CROSSE      CLOUDY    36  33  89 NW7       29.87S WCI  30
SPARTA         CLOUDY    32  32 100 NE3       29.87S FOG
VIROQUA        CLOUDY    32  32 100 CALM      29.83S VSB 3/4
BOSCOBEL       FOG       34  33  96 E5        29.84S VSB 1   WCI  30
PRAIRIE DU CHI CLOUDY    33  32  96 CALM      29.84S FOG
PLATTEVILLE    CLOUDY    34  34 100 N8        29.81S WCI  27
$$

WIZ056-057-062-063-064-067-068-171000-
SOUTH CENTRAL WISCONSIN

CITY           SKY/WX    TMP DP  RH WIND       PRES   REMARKS
REEDSBURG      CLOUDY    32  32 100 E5        29.83S FOG     WCI  27
BARABOO/DELLS  FOG       32  32 100 NE3       29.82F VSB 3/4
LONE ROCK      NOT AVBL
MINERAL POINT  FOG       34  34 100 N6        29.80S VSB 3/4 WCI  29
MADISON        CLOUDY    34  34 100 N5        29.81S FOG     WCI  30
MIDDLETON      CLOUDY    35  35 100 NE6       29.82S WCI  30
WATERTOWN      LGT RAIN  34  34 100 NE3       29.80F
MONROE         FOG       34  34 100 N7        29.79S VSB 1/2 WCI  28
JANESVILLE     CLOUDY    36  36 100 N3        29.79S FOG
$$

WIZ051-052-058>065-066-070>072-171000-
SOUTHEAST WISCONSIN

CITY           SKY/WX    TMP DP  RH WIND       PRES   REMARKS
MILWAUKEE      LGT RAIN  38  36  92 E7        29.79F VSB 1   WCI  33
WAUKESHA       SNOW      32  32 100 NE5       29.80F VSB 1/2 WCI  27
MILWAUKEE/TIMM FOG       36  32  87 NE5       29.81F VSB 1/2 WCI  32
RACINE         RAIN      38  37  97 NE7       29.79F FOG     WCI  33
KENOSHA        RAIN      37  36  96 NE7       29.77F FOG     WCI  32
FOND DU LAC    LGT RAIN  34  32  92 NE10      29.83F FOG     WCI  26
SHEBOYGAN      FOG       35  34  96 NE7       29.83F VSB 3/4 WCI  29
WEST BEND      RAIN      34  34 100 NE6       29.81F WCI  29
JUNEAU         LGT RAIN  33  33  99 NE6       29.82F VSB 3/4 WCI  28
$$

LSZ147-162-171000-
LAKE SUPERIOR

STATION/POSITION TIME  TEMP    WIND        PRES    WAVE
                       AIR SEA DIR/SP/G            HT/PER
                 (UTC) (F)     (DEG/KT/KT) (MB)    (FT/S)
DEVILS ISLAND    0800   33      70/  4/  5 1017.0S
PORT WING        0840   21     140/  2/  3 1015.9F
SAXON HARBOR     0830   26     190/  2/  3 1015.6S
$$

LMZ867-665-643>646-171000-
LAKE MICHIGAN

STATION/POSITION TIME  TEMP    WIND        PRES    WAVE
                       AIR SEA DIR/SP/G            HT/PER
                 (UTC) (F)     (DEG/KT/KT) (MB)    (FT/S)
NORTHPORT PIER   0840   35      50/ 11/ 14 1014.2F
SISTER BAY       0820   33      40/  5/  7   N/A
KEWAUNEE LAKESHO 0830   35      40/  9/ 11 1011.8F
SHEBOYGAN LAKESH 0800   36      90/ 12/ 13 1011.4F
PORT WASHINGTON  0840   36      60/  6/  8 1010.8F
MILWAUKEE LAKESH 0830   36      60/  6/  7   N/A
KENOSHA   LAKESH 0800   36      50/  9/ 10 1009.1
$$

TC  - TEMPERATURE IN CELSIUS
VSB - VISIBILITY IN STATUTE MILES
WCI - WIND CHILL INDEX
HX  - HEAT INDEX





USA.gov is the U.S. government's official web portal to all federal, state and local government web resources and services.